| time (UTC) | temp C | wind direction | speed KPH | gust KPH | rain 1hr cm | rain 24hr cm | rain mn cm | humidity % | barometer mb |
| 20260508114533 | 13 | 269 | 17.7 | 37.0 | 0.00 | 0.00 | 0.00 | 57 | 1019.0 |
| 20260508113033 | 13 | 268 | 12.9 | 27.4 | 0.00 | 0.00 | 0.00 | 56 | 1018.9 |
| 20260508111534 | 12 | 285 | 6.4 | 19.3 | 0.00 | 0.00 | 0.00 | 57 | 1018.8 |
| 20260508110036 | 13 | 288 | 6.4 | 12.9 | 0.00 | 0.00 | 0.00 | 54 | 1018.8 |
| 20260508103032 | 12 | 271 | 8.0 | 17.7 | 0.00 | 0.00 | 0.00 | 59 | 1018.8 |
| 20260508100032 | 10 | 165 | 1.6 | 4.8 | 0.00 | 0.00 | 0.00 | 61 | 1018.7 |
| 20260508093034 | 11 | 311 | 3.2 | 11.3 | 0.00 | 0.00 | 0.00 | 58 | 1018.6 |
| 20260508091530 | 12 | 309 | 4.8 | 12.9 | 0.00 | 0.00 | 0.00 | 54 | 1018.5 |
| 20260508090032 | 13 | 297 | 3.2 | 9.7 | 0.00 | 0.00 | 0.00 | 50 | 1018.5 |
| 20260508084534 | 14 | 280 | 4.8 | 16.1 | 0.00 | 0.00 | 0.00 | 47 | 1018.5 |
| 20260508083030 | 14 | 278 | 6.4 | 16.1 | 0.00 | 0.00 | 0.00 | 47 | 1018.4 |
| 20260508081531 | 14 | 281 | 6.4 | 12.9 | 0.00 | 0.00 | 0.00 | 46 | 1018.4 |
| 20260508080141 | 14 | 282 | 6.4 | 16.1 | 0.00 | 0.00 | 0.00 | 44 | 1018.4 |
| 20260508074536 | 15 | 273 | 8.0 | 12.9 | 0.00 | 0.00 | 0.00 | 43 | 1018.5 |
| 20260508071536 | 15 | 276 | 9.7 | 17.7 | 0.00 | 0.00 | 0.00 | 42 | 1018.3 |
| 20260508070035 | 15 | 279 | 9.7 | 17.7 | 0.00 | 0.00 | 0.00 | 42 | 1018.4 |
| 20260508064609 | 15 | 272 | 9.7 | 20.9 | 0.00 | 0.00 | 0.00 | 42 | 1018.4 |
| 20260508063031 | 15 | 271 | 11.3 | 22.5 | 0.00 | 0.00 | 0.00 | 42 | 1018.4 |
| 20260508061536 | 16 | 269 | 11.3 | 16.1 | 0.00 | 0.00 | 0.00 | 42 | 1018.3 |
| 20260508060032 | 16 | 272 | 11.3 | 20.9 | 0.00 | 0.00 | 0.00 | 42 | 1018.3 |
| 20260508053032 | 16 | 274 | 9.7 | 24.1 | 0.00 | 0.00 | 0.00 | 41 | 1018.4 |
| 20260508044533 | 16 | 289 | 11.3 | 20.9 | 0.00 | 0.00 | 0.00 | 43 | 1018.2 |
| 20260508043033 | 16 | 290 | 11.3 | 22.5 | 0.00 | 0.00 | 0.00 | 42 | 1018.2 |
| 20260508041644 | 17 | 278 | 11.3 | 25.7 | 0.00 | 0.00 | 0.00 | 41 | 1018.2 |
| 20260508040031 | 17 | 273 | 11.3 | 24.1 | 0.00 | 0.00 | 0.00 | 41 | 1018.1 |
| 20260508034538 | 17 | 277 | 8.0 | 16.1 | 0.00 | 0.00 | 0.00 | 39 | 1018.0 |
| 20260508033035 | 17 | 283 | 8.0 | 24.1 | 0.00 | 0.00 | 0.00 | 37 | 1017.8 |
| 20260508031535 | 17 | 288 | 8.0 | 20.9 | 0.00 | 0.00 | 0.00 | 35 | 1017.6 |
| 20260508023036 | 18 | 285 | 11.3 | 22.5 | 0.00 | 0.00 | 0.00 | 29 | 1017.4 |
| 20260508021534 | 19 | 281 | 11.3 | 24.1 | 0.00 | 0.00 | 0.00 | 27 | 1017.3 |
| 20260508020034 | 20 | 282 | 12.9 | 25.7 | 0.00 | 0.00 | 0.00 | 26 | 1017.3 |
| 20260508014535 | 20 | 285 | 16.1 | 30.6 | 0.00 | 0.00 | 0.00 | 26 | 1017.2 |
| 20260508013033 | 21 | 282 | 12.9 | 25.7 | 0.00 | 0.00 | 0.00 | 25 | 1017.3 |
| 20260508011534 | 21 | 279 | 14.5 | 27.4 | 0.00 | 0.00 | 0.00 | 24 | 1017.4 |
| 20260508010036 | 21 | 278 | 14.5 | 32.2 | 0.00 | 0.00 | 0.00 | 24 | 1017.5 |
| 20260508004533 | 21 | 285 | 14.5 | 29.0 | 0.00 | 0.00 | 0.00 | 23 | 1017.4 |
| 20260508001534 | 21 | 288 | 14.5 | 30.6 | 0.00 | 0.00 | 0.00 | 23 | 1017.4 |
| 20260508000039 | 21 | 283 | 12.9 | 24.1 | 0.00 | 0.00 | 0.00 | 22 | 1017.3 |
| 20260507234536 | 21 | 277 | 16.1 | 35.4 | 0.00 | 0.00 | 0.00 | 21 | 1017.3 |
| 20260507224530 | 21 | 283 | 19.3 | 35.4 | 0.00 | 0.00 | 0.00 | 27 | 1017.6 |
| 20260507223034 | 21 | 275 | 22.5 | 40.2 | 0.00 | 0.00 | 0.00 | 28 | 1017.6 |
| 20260507221536 | 21 | 278 | 19.3 | 37.0 | 0.00 | 0.00 | 0.00 | 30 | 1018.0 |
| 20260507220037 | 21 | 291 | 16.1 | 35.4 | 0.00 | 0.00 | 0.00 | 32 | 1018.1 |
| 20260507213143 | 20 | 283 | 17.7 | 32.2 | 0.00 | 0.00 | 0.00 | 38 | 1018.5 |
| 20260507210035 | 20 | 284 | 17.7 | 33.8 | 0.00 | 0.00 | 0.00 | 40 | 1018.6 |
| 20260507204533 | 19 | 282 | 19.3 | 35.4 | 0.00 | 0.00 | 0.00 | 41 | 1018.7 |
| 20260507203035 | 19 | 290 | 17.7 | 37.0 | 0.00 | 0.00 | 0.00 | 42 | 1018.7 |
| 20260507201535 | 18 | 283 | 19.3 | 41.8 | 0.00 | 0.00 | 0.00 | 42 | 1018.9 |
| 20260507194534 | 18 | 273 | 19.3 | 38.6 | 0.00 | 0.00 | 0.00 | 44 | 1019.4 |
| 20260507193037 | 17 | 279 | 22.5 | 43.5 | 0.00 | 0.00 | 0.00 | 48 | 1019.5 |
| 20260507191529 | 17 | 273 | 19.3 | 37.0 | 0.00 | 0.00 | 0.00 | 50 | 1019.6 |
| 20260507184535 | 16 | 261 | 11.3 | 24.1 | 0.00 | 0.00 | 0.00 | 55 | 1020.7 |
| 20260507181608 | 16 | 255 | 14.5 | 29.0 | 0.00 | 0.00 | 0.00 | 56 | 1020.7 |
| 20260507180045 | 15 | 249 | 12.9 | 30.6 | 0.00 | 0.00 | 0.00 | 58 | 1020.7 |
| 20260507180035 | 15 | 256 | 19.3 | 35.4 | 0.00 | 0.00 | 0.00 | 60 | 1020.7 |
| 20260507173034 | 14 | 267 | 22.5 | 38.6 | 0.00 | 0.00 | 0.00 | 61 | 1020.6 |
| 20260507171652 | 14 | 258 | 17.7 | 35.4 | 0.00 | 0.00 | 0.00 | 63 | 1020.9 |
| 20260507170033 | 14 | 280 | 17.7 | 33.8 | 0.00 | 0.00 | 0.00 | 64 | 1020.9 |
| 20260507164606 | 13 | 285 | 17.7 | 33.8 | 0.00 | 0.00 | 0.00 | 67 | 1021.0 |
| 20260507163031 | 13 | 281 | 17.7 | 37.0 | 0.00 | 0.00 | 0.00 | 68 | 1021.1 |
| 20260507161539 | 13 | 277 | 16.1 | 33.8 | 0.00 | 0.00 | 0.00 | 69 | 1021.2 |
| 20260507160111 | 12 | 272 | 17.7 | 37.0 | 0.00 | 0.00 | 0.00 | 70 | 1021.4 |
| 20260507154532 | 12 | 287 | 14.5 | 30.6 | 0.00 | 0.00 | 0.00 | 73 | 1021.5 |
| 20260507151535 | 12 | 287 | 12.9 | 25.7 | 0.00 | 0.00 | 0.00 | 74 | 1021.6 |
| 20260507150045 | 12 | 292 | 12.9 | 27.4 | 0.00 | 0.00 | 0.00 | 76 | 1021.7 |
| 20260507144534 | 11 | 298 | 11.3 | 25.7 | 0.00 | 0.00 | 0.00 | 78 | 1021.7 |
| 20260507143109 | 11 | 298 | 12.9 | 25.7 | 0.00 | 0.00 | 0.00 | 80 | 1021.7 |
| 20260507141535 | 11 | 298 | 11.3 | 25.7 | 0.00 | 0.00 | 0.00 | 80 | 1021.6 |
| 20260507140036 | 11 | 299 | 12.9 | 27.4 | 0.00 | 0.00 | 0.00 | 80 | 1021.3 |
| 20260507134535 | 11 | 285 | 12.9 | 32.2 | 0.00 | 0.00 | 0.00 | 80 | 1021.0 |
| 20260507133031 | 11 | 292 | 12.9 | 27.4 | 0.00 | 0.00 | 0.00 | 81 | 1020.9 |
| 20260507131536 | 11 | 286 | 14.5 | 29.0 | 0.00 | 0.00 | 0.00 | 80 | 1020.9 |
| 20260507124530 | 11 | 285 | 14.5 | 25.7 | 0.00 | 0.00 | 0.00 | 80 | 1020.8 |
| 20260507121536 | 11 | 280 | 12.9 | 32.2 | 0.00 | 0.00 | 0.00 | 79 | 1021.0 |
| 20260507120036 | 11 | 279 | 14.5 | 29.0 | 0.00 | 0.00 | 0.00 | 78 | 1021.0 |